Regional Weather Roundup
Issued by NWS Little Rock, AR

Home | Current Version | Previous Version | Graphics & Text | Print | Product List | Glossary On
Versions: 1 2 3 4 5 6 7 8 9 10 11 12 13 14 15 16 17 18 19 20 21 22 23 24 25 26 27 28 29 30 31 32 33 34 35 36 37 38 39 40 41 42 43 44 45 46 47 48 49 50
901
ASUS44 KLZK 310805
RWRLZK

WEATHER ROUNDUP FOR ARKANSAS
NATIONAL WEATHER SERVICE LITTLE ROCK AR
300 AM CDT TUE MAY 31 2016

NOTE: "FAIR" INDICATES FEW OR NO CLOUDS BELOW 12,000 FEET WITH NO
SIGNIFICANT WEATHER AND/OR OBSTRUCTIONS TO VISIBILITY.

ARZ001-003-010-029-310900-
NORTHWEST ARKANSAS

CITY           SKY/WX    TMP DP  RH WIND       PRES   REMARKS
FAYETTEVILLE   FOG       60  60 100 CALM      29.94S VSB 1/4
FORT SMITH     PTCLDY    68  65  90 E6        29.92S
HARRISON       CLOUDY    64  62  93 SE8       29.96F
BENTONVILLE    CLEAR     64  61  88 SE3       29.94F
ROGERS           N/A     64  63  96 SE6       29.95F
SILOAM SPGS    PTCLDY    63  55  77 E3        29.94S
HIGHFILL       PTCLDY    64  64 100 CALM      29.94S FOG
$$

ARZ004-005-016-310900-
NORTH CENTRAL ARKANSAS

CITY           SKY/WX    TMP DP  RH WIND       PRES   REMARKS
BATESVILLE     CLOUDY    64  63  94 CALM      29.93F
FLIPPIN        CLOUDY   N/A N/A N/A CALM      29.92F
MTN HOME       CLOUDY    65  63  93 CALM      29.93F
$$

ARZ040-041-310900-
WEST CENTRAL ARKANSAS

CITY           SKY/WX    TMP DP  RH WIND       PRES   REMARKS
MENA           MOCLDY    68  66  94 CALM      29.95F
MOUNT IDA      MOCLDY    64  62  93 CALM      29.92F FOG
$$

ARZ009-017-025-026-028-310900-
NORTHEAST ARKANSAS

CITY           SKY/WX    TMP DP  RH WIND       PRES   REMARKS
CORNING        LGT RAIN  70  68  94 N5        29.94F
JONESBORO      CLOUDY    69  66  90 N6        29.93F
NEWPORT        CLOUDY    70  70 100 NW6       29.94F
WALNUT RIDGE   CLOUDY    68  64  88 N6        29.94F
BLYTHEVILLE    MOCLDY    71  67  87 NW7       29.94F
$$

ARZ022-023-033-042-044-310900-
CENTRAL ARKANSAS

CITY           SKY/WX    TMP DP  RH WIND       PRES   REMARKS
LITTLE ROCK    PTCLDY    66  64  93 N3        29.92F
N LITTLE ROCK    N/A     64  63  96 CALM      29.90F
JACKSONVILLE   CLOUDY    65  65 100 MISG      29.91F
SEARCY         CLOUDY    66  66 100 CALM      29.93F
HOT SPRINGS    PTCLDY    65  62  90 CALM      29.94S
RUSSELLVILLE   CLOUDY    65  64  97 W3        29.93F
CLINTON        FAIR      64  64 100 CALM      29.95S
$$

ARZ036-310900-
EAST ARKANSAS

CITY           SKY/WX    TMP DP  RH WIND       PRES   REMARKS
WEST MEMPHIS   CLOUDY    69  67  93 CALM      29.93R
$$

ARZ050-053-066-070-073-310900-
SOUTHWEST ARKANSAS

CITY           SKY/WX    TMP DP  RH WIND       PRES   REMARKS
ARKADELPHIA    FAIR      65  65 100 CALM      29.94F
CAMDEN         LGT RAIN  66  64  94 S3        29.96R
TEXARKANA      CLOUDY    68  67  96 SE6       29.92F
EL DORADO      TSTM      69  68  96 CALM      29.95F FOG
DE QUEEN       MOCLDY    67  65  93 NE3       29.91S
$$

ARZ056-057-069-310900-
SOUTHEAST ARKANSAS

CITY           SKY/WX    TMP DP  RH WIND       PRES   REMARKS
STUTTGART      PTCLDY    68  63  83 E6        29.92R
MONTICELLO     MOCLDY    69  66  90 CALM      29.93S

$$






USA.gov is the U.S. government's official web portal to all federal, state and local government web resources and services.